{"data":{"norad_id":63263,"intl_designator":"2025-052BF","name":"SOAP","alt_names":[],"object_type":"PAYLOAD","status":"ACTIVE","operator":null,"country":"FR","launch_date":"2025-03-15","launch_site_code":"AFWTR","launch_vehicle":null,"mission":null,"orbit_class":"UNKNOWN","rcs_meters":null,"size_class":null,"mass_kg":null,"dimensions":null,"purposes":[],"wikipedia_slug":null,"has_3d_model":false,"image_url":null,"decayed_at":null,"tle_current":{"epoch":"2026-05-25T05:28:45.125184Z","epoch_age_seconds":58390,"freshness":"FRESH","line1":"1 63263U 25052BF  26145.22830006  .00002285  00000+0  20534-3 0  9996","line2":"2 63263  97.6882  37.9412 0003357  69.1133 291.0448 14.96654250 65257","mean_motion":14.9665425,"eccentricity":0.0003357,"inclination_deg":97.6882,"raan_deg":37.9412,"arg_perigee_deg":69.1133,"mean_anomaly_deg":291.0448,"bstar":0.00020534,"rev_number":6525,"period_min":96.2146066802,"perigee_km":574.90792316469,"apogee_km":579.57776519207,"semimajor_km":6955.3798441784,"source":"CELESTRAK","updated_at":"2026-05-25T13:38:03.610804Z"}}}